Time,TemperatureF,DewpointF,PressureIn,WindDirection,WindDirectionDegrees,WindSpeedMPH,WindSpeedGustMPH,Humidity,HourlyPrecipIn,Conditions,Clouds,dailyrainin,SoftwareType,DateUTC
2013-12-08 00:00:00,7.4,4.1,30.55,West,276,0.0,0.0,86,0.00,,---,0.00,VWS V14.00,2013-12-08 06:00:00,
2013-12-08 00:02:00,7.5,4.2,30.54,West,276,0.0,0.0,86,0.00,,---,0.00,VWS V14.00,2013-12-08 06:02:00,
2013-12-08 00:05:00,7.6,4.3,30.54,West,276,0.0,0.0,86,0.00,,---,0.00,VWS V14.00,2013-12-08 06:05:00,
2013-12-08 00:07:00,7.7,4.4,30.53,West,276,0.0,0.0,86,0.00,,---,0.00,VWS V14.00,2013-12-08 06:07:00,
2013-12-08 00:10:00,7.7,4.4,30.53,West,276,0.0,0.0,86,0.00,,---,0.00,VWS V14.00,2013-12-08 06:10:00,
2013-12-08 00:12:00,7.8,4.2,30.53,West,276,0.0,0.0,85,0.00,,---,0.00,VWS V14.00,2013-12-08 06:12:00,
2013-12-08 00:15:00,7.8,4.2,30.53,West,276,0.0,0.0,85,0.00,,---,0.00,VWS V14.00,2013-12-08 06:15:00,
2013-12-08 00:17:00,7.9,4.3,30.53,West,276,0.0,0.0,85,0.00,,---,0.00,VWS V14.00,2013-12-08 06:17:00,
2013-12-08 00:20:00,8.0,4.4,30.53,West,276,0.0,0.0,85,0.00,,---,0.00,VWS V14.00,2013-12-08 06:20:00,
2013-12-08 00:22:00,8.1,4.5,30.53,West,276,0.0,0.0,85,0.00,,---,0.00,VWS V14.00,2013-12-08 06:22:00,
2013-12-08 00:25:00,8.1,4.5,30.53,West,276,0.0,0.0,85,0.00,,---,0.00,VWS V14.00,2013-12-08 06:25:00,
2013-12-08 00:27:00,8.2,4.6,30.54,West,276,0.0,0.0,85,0.00,,---,0.00,VWS V14.00,2013-12-08 06:27:00,
2013-12-08 00:30:00,8.3,4.7,30.54,West,276,0.0,0.0,85,0.00,,---,0.00,VWS V14.00,2013-12-08 06:30:00,
2013-12-08 00:32:00,8.5,4.9,30.53,West,276,0.0,0.0,85,0.00,,---,0.00,VWS V14.00,2013-12-08 06:32:00,
2013-12-08 00:35:00,8.6,5.0,30.53,West,276,0.0,0.0,85,0.00,,---,0.00,VWS V14.00,2013-12-08 06:35:00,
2013-12-08 00:37:00,8.7,4.9,30.53,West,276,0.0,0.0,84,0.00,,---,0.00,VWS V14.00,2013-12-08 06:37:00,
2013-12-08 00:40:00,8.8,5.0,30.53,West,276,0.0,0.0,84,0.00,,---,0.00,VWS V14.00,2013-12-08 06:40:00,
2013-12-08 00:42:00,8.9,5.1,30.53,West,276,0.0,0.0,84,0.00,,---,0.00,VWS V14.00,2013-12-08 06:42:00,
2013-12-08 00:45:00,8.9,4.8,30.53,West,276,0.0,0.0,83,0.00,,---,0.00,VWS V14.00,2013-12-08 06:45:00,
2013-12-08 00:47:00,9.0,4.9,30.53,West,276,0.0,0.0,83,0.00,,---,0.00,VWS V14.00,2013-12-08 06:47:00,
2013-12-08 00:50:00,9.0,4.9,30.53,West,276,0.0,0.0,83,0.00,,---,0.00,VWS V14.00,2013-12-08 06:50:00,
2013-12-08 00:52:00,9.0,4.6,30.52,West,276,0.0,0.0,82,0.00,,---,0.00,VWS V14.00,2013-12-08 06:52:00,
2013-12-08 00:55:00,9.1,4.7,30.53,West,276,0.0,0.0,82,0.00,,---,0.00,VWS V14.00,2013-12-08 06:55:00,
2013-12-08 00:57:00,9.1,4.5,30.53,West,276,0.0,0.0,81,0.00,,---,0.00,VWS V14.00,2013-12-08 06:57:00,
2013-12-08 01:00:00,9.1,4.5,30.53,West,276,0.0,0.0,81,0.00,,---,0.00,VWS V14.00,2013-12-08 07:00:00,
2013-12-08 01:02:00,9.2,4.6,30.53,West,276,0.0,0.0,81,0.00,,---,0.00,VWS V14.00,2013-12-08 07:02:00,
2013-12-08 01:05:00,9.2,4.3,30.53,West,276,0.0,0.0,80,0.00,,---,0.00,VWS V14.00,2013-12-08 07:05:00,
2013-12-08 01:07:00,9.3,4.4,30.52,West,276,0.0,0.0,80,0.00,,---,0.00,VWS V14.00,2013-12-08 07:07:00,
2013-12-08 01:10:00,9.3,4.4,30.52,West,276,0.0,0.0,80,0.00,,---,0.00,VWS V14.00,2013-12-08 07:10:00,
2013-12-08 01:12:00,9.4,4.5,30.52,West,276,0.0,0.0,80,0.00,,---,0.00,VWS V14.00,2013-12-08 07:12:00,
2013-12-08 01:15:00,9.4,4.2,30.52,West,276,0.0,0.0,79,0.00,,---,0.00,VWS V14.00,2013-12-08 07:15:00,
2013-12-08 01:17:00,9.4,4.2,30.52,West,276,0.0,0.0,79,0.00,,---,0.00,VWS V14.00,2013-12-08 07:17:00,
2013-12-08 01:20:00,9.5,4.3,30.52,West,276,0.0,0.0,79,0.00,,---,0.00,VWS V14.00,2013-12-08 07:20:00,
2013-12-08 01:22:00,9.5,4.3,30.52,West,276,0.0,0.0,79,0.00,,---,0.00,VWS V14.00,2013-12-08 07:22:00,
2013-12-08 01:25:00,9.5,4.3,30.52,West,276,0.0,0.0,79,0.00,,---,0.00,VWS V14.00,2013-12-08 07:25:00,
2013-12-08 01:27:00,9.5,4.3,30.52,West,276,0.0,0.0,79,0.00,,---,0.00,VWS V14.00,2013-12-08 07:27:00,
2013-12-08 01:30:00,9.6,4.4,30.51,West,276,0.0,0.0,79,0.00,,---,0.00,VWS V14.00,2013-12-08 07:30:00,
2013-12-08 01:32:00,9.6,4.4,30.51,West,276,0.0,0.0,79,0.00,,---,0.00,VWS V14.00,2013-12-08 07:32:00,
2013-12-08 01:35:00,9.6,4.4,30.51,West,276,0.0,0.0,79,0.00,,---,0.00,VWS V14.00,2013-12-08 07:35:00,
2013-12-08 01:37:00,9.6,4.7,30.51,West,276,0.0,0.0,80,0.00,,---,0.00,VWS V14.00,2013-12-08 07:37:00,
2013-12-08 01:40:00,9.6,4.7,30.51,West,276,0.0,0.0,80,0.00,,---,0.00,VWS V14.00,2013-12-08 07:40:00,
2013-12-08 01:42:00,9.6,4.7,30.51,West,276,0.0,1.0,80,0.00,,---,0.00,VWS V14.00,2013-12-08 07:42:00,
2013-12-08 01:45:00,9.6,4.4,30.51,West,276,0.0,1.0,79,0.00,,---,0.00,VWS V14.00,2013-12-08 07:45:00,
2013-12-08 01:47:00,9.6,4.4,30.50,West,276,0.0,1.0,79,0.00,,---,0.00,VWS V14.00,2013-12-08 07:47:00,
2013-12-08 01:50:00,9.6,4.4,30.50,West,276,0.0,1.0,79,0.00,,---,0.00,VWS V14.00,2013-12-08 07:50:00,
2013-12-08 01:52:00,9.6,4.4,30.50,West,276,0.0,0.0,79,0.00,,---,0.00,VWS V14.00,2013-12-08 07:52:00,
2013-12-08 01:55:00,9.6,4.4,30.50,West,276,0.0,0.0,79,0.00,,---,0.00,VWS V14.00,2013-12-08 07:55:00,
2013-12-08 01:57:00,9.6,4.4,30.50,West,276,0.0,1.0,79,0.00,,---,0.00,VWS V14.00,2013-12-08 07:57:00,
2013-12-08 02:00:00,9.6,4.4,30.50,West,276,0.0,1.0,79,0.00,,---,0.00,VWS V14.00,2013-12-08 08:00:00,
2013-12-08 02:02:00,9.7,4.5,30.49,West,276,0.0,1.0,79,0.00,,---,0.00,VWS V14.00,2013-12-08 08:02:00,
2013-12-08 02:05:00,9.7,4.5,30.49,West,276,0.0,2.0,79,0.00,,---,0.00,VWS V14.00,2013-12-08 08:05:00,
2013-12-08 02:07:00,9.8,4.6,30.49,West,276,2.0,2.0,79,0.00,,---,0.00,VWS V14.00,2013-12-08 08:07:00,
2013-12-08 02:10:00,9.9,4.7,30.49,West,276,1.0,2.0,79,0.00,,---,0.00,VWS V14.00,2013-12-08 08:10:00,
2013-12-08 02:12:00,9.9,4.4,30.48,West,276,0.0,2.0,78,0.00,,---,0.00,VWS V14.00,2013-12-08 08:12:00,
2013-12-08 02:15:00,10.0,4.5,30.48,West,276,1.0,2.0,78,0.00,,---,0.00,VWS V14.00,2013-12-08 08:15:00,
2013-12-08 02:17:00,10.1,4.6,30.48,West,276,0.0,2.0,78,0.00,,---,0.00,VWS V14.00,2013-12-08 08:17:00,
2013-12-08 02:20:00,10.1,4.6,30.48,NNW,329,0.0,3.0,78,0.00,,---,0.00,VWS V14.00,2013-12-08 08:20:00,
2013-12-08 02:22:00,10.2,4.7,30.48,NNW,329,0.0,1.0,78,0.00,,---,0.00,VWS V14.00,2013-12-08 08:22:00,
2013-12-08 02:25:00,10.2,4.7,30.47,NE,34,1.0,1.0,78,0.00,,---,0.00,VWS V14.00,2013-12-08 08:25:00,
2013-12-08 02:27:00,10.3,4.8,30.47,NE,35,2.0,2.0,78,0.00,,---,0.00,VWS V14.00,2013-12-08 08:27:00,
2013-12-08 02:30:00,10.3,4.8,30.47,NE,45,0.0,3.0,78,0.00,,---,0.00,VWS V14.00,2013-12-08 08:30:00,
2013-12-08 02:32:00,10.3,4.5,30.47,NE,45,0.0,2.0,77,0.00,,---,0.00,VWS V14.00,2013-12-08 08:32:00,
2013-12-08 02:35:00,10.3,4.2,30.47,NE,45,0.0,3.0,76,0.00,,---,0.00,VWS V14.00,2013-12-08 08:35:00,
2013-12-08 02:37:00,10.3,4.2,30.47,NE,54,0.0,3.0,76,0.00,,---,0.00,VWS V14.00,2013-12-08 08:37:00,
2013-12-08 02:40:00,10.3,4.2,30.47,NE,54,0.0,3.0,76,0.00,,---,0.00,VWS V14.00,2013-12-08 08:40:00,
2013-12-08 02:42:00,10.3,4.2,30.47,NE,53,0.0,2.0,76,0.00,,---,0.00,VWS V14.00,2013-12-08 08:42:00,
2013-12-08 02:45:00,10.3,4.0,30.47,NE,52,0.0,3.0,75,0.00,,---,0.00,VWS V14.00,2013-12-08 08:45:00,
2013-12-08 02:47:00,10.4,4.1,30.47,NE,51,0.0,2.0,75,0.00,,---,0.00,VWS V14.00,2013-12-08 08:47:00,
2013-12-08 02:50:00,10.4,4.1,30.46,NE,51,0.0,2.0,75,0.00,,---,0.00,VWS V14.00,2013-12-08 08:50:00,
2013-12-08 02:52:00,10.4,4.1,30.47,NE,51,1.0,2.0,75,0.00,,---,0.00,VWS V14.00,2013-12-08 08:52:00,
2013-12-08 02:55:00,10.4,4.1,30.47,NE,51,0.0,2.0,75,0.00,,---,0.00,VWS V14.00,2013-12-08 08:55:00,
2013-12-08 02:57:00,10.4,4.1,30.47,NE,51,0.0,1.0,75,0.00,,---,0.00,VWS V14.00,2013-12-08 08:57:00,
2013-12-08 03:00:00,10.4,4.1,30.47,NE,51,0.0,1.0,75,0.00,,---,0.00,VWS V14.00,2013-12-08 09:00:00,
2013-12-08 03:02:00,10.4,4.1,30.47,NE,51,0.0,2.0,75,0.00,,---,0.00,VWS V14.00,2013-12-08 09:02:00,
2013-12-08 03:05:00,10.4,4.1,30.47,NE,51,0.0,2.0,75,0.00,,---,0.00,VWS V14.00,2013-12-08 09:05:00,
2013-12-08 03:07:00,10.5,4.2,30.46,NE,50,2.0,3.0,75,0.00,,---,0.00,VWS V14.00,2013-12-08 09:07:00,
2013-12-08 03:10:00,10.5,4.2,30.46,NE,50,2.0,3.0,75,0.00,,---,0.00,VWS V14.00,2013-12-08 09:10:00,
2013-12-08 03:12:00,10.5,4.2,30.46,NE,50,0.0,2.0,75,0.00,,---,0.00,VWS V14.00,2013-12-08 09:12:00,
2013-12-08 03:15:00,10.5,4.2,30.46,NE,50,0.0,2.0,75,0.00,,---,0.00,VWS V14.00,2013-12-08 09:15:00,
2013-12-08 03:17:00,10.5,4.2,30.45,NE,43,2.0,3.0,75,0.00,,---,0.00,VWS V14.00,2013-12-08 09:17:00,
2013-12-08 03:20:00,10.5,4.2,30.45,NE,41,0.0,3.0,75,0.00,,---,0.00,VWS V14.00,2013-12-08 09:20:00,
2013-12-08 03:22:00,10.5,4.2,30.45,NE,41,0.0,1.0,75,0.00,,---,0.00,VWS V14.00,2013-12-08 09:22:00,
2013-12-08 03:25:00,10.5,4.2,30.45,NE,41,2.0,3.0,75,0.00,,---,0.00,VWS V14.00,2013-12-08 09:25:00,
2013-12-08 03:27:00,10.5,4.2,30.44,NE,42,3.0,3.0,75,0.00,,---,0.00,VWS V14.00,2013-12-08 09:27:00,
2013-12-08 03:30:00,10.6,4.3,30.44,NE,39,2.0,3.0,75,0.00,,---,0.00,VWS V14.00,2013-12-08 09:30:00,
2013-12-08 03:32:00,10.6,4.2,30.44,NE,40,0.0,3.0,75,0.00,,---,0.00,VWS V14.00,2013-12-08 09:32:00,
2013-12-08 03:35:00,10.6,4.0,30.44,NE,40,0.0,3.0,74,0.00,,---,0.00,VWS V14.00,2013-12-08 09:35:00,
2013-12-08 03:37:00,10.6,4.2,30.43,NE,40,0.0,0.0,75,0.00,,---,0.00,VWS V14.00,2013-12-08 09:37:00,
2013-12-08 03:40:00,10.7,4.1,30.43,NE,40,0.0,1.0,74,0.00,,---,0.00,VWS V14.00,2013-12-08 09:40:00,
2013-12-08 03:42:00,10.7,4.1,30.43,NE,46,0.0,3.0,74,0.00,,---,0.00,VWS V14.00,2013-12-08 09:42:00,
2013-12-08 03:45:00,10.6,4.0,30.43,NE,46,1.0,3.0,74,0.00,,---,0.00,VWS V14.00,2013-12-08 09:45:00,
2013-12-08 03:47:00,10.6,4.0,30.43,NE,41,0.0,5.0,74,0.00,,---,0.00,VWS V14.00,2013-12-08 09:47:00,
2013-12-08 03:50:00,10.6,4.0,30.43,NE,42,0.0,5.0,74,0.00,,---,0.00,VWS V14.00,2013-12-08 09:50:00,
2013-12-08 03:52:00,10.7,4.1,30.44,NE,42,2.0,2.0,74,0.00,,---,0.00,VWS V14.00,2013-12-08 09:52:00,
2013-12-08 03:55:00,10.7,4.1,30.44,NE,40,0.0,2.0,74,0.00,,---,0.00,VWS V14.00,2013-12-08 09:55:00,
2013-12-08 03:57:00,10.7,4.1,30.44,East,82,0.0,3.0,74,0.00,,---,0.00,VWS V14.00,2013-12-08 09:57:00,
2013-12-08 04:00:00,10.7,4.1,30.44,East,82,1.0,3.0,74,0.00,,---,0.00,VWS V14.00,2013-12-08 10:00:00,
2013-12-08 04:02:00,10.7,4.1,30.44,ENE,74,1.0,3.0,74,0.00,,---,0.00,VWS V14.00,2013-12-08 10:02:00,
2013-12-08 04:05:00,10.7,4.1,30.44,ENE,75,0.0,3.0,74,0.00,,---,0.00,VWS V14.00,2013-12-08 10:05:00,
2013-12-08 04:07:00,10.8,3.9,30.44,ENE,60,1.0,3.0,73,0.00,,---,0.00,VWS V14.00,2013-12-08 10:07:00,
2013-12-08 04:10:00,10.8,3.9,30.44,ENE,60,1.0,3.0,73,0.00,,---,0.00,VWS V14.00,2013-12-08 10:10:00,
2013-12-08 04:12:00,10.8,3.9,30.43,ENE,59,1.0,3.0,73,0.00,,---,0.00,VWS V14.00,2013-12-08 10:12:00,
2013-12-08 04:15:00,10.8,3.9,30.43,ENE,60,0.0,3.0,73,0.00,,---,0.00,VWS V14.00,2013-12-08 10:15:00,
2013-12-08 04:17:00,10.8,3.9,30.42,ENE,61,0.0,4.0,73,0.00,,---,0.00,VWS V14.00,2013-12-08 10:17:00,
2013-12-08 04:20:00,10.8,3.9,30.43,ENE,58,1.0,4.0,73,0.00,,---,0.00,VWS V14.00,2013-12-08 10:20:00,
2013-12-08 04:22:00,10.7,3.5,30.43,ENE,62,0.0,5.0,72,0.00,,---,0.00,VWS V14.00,2013-12-08 10:22:00,
2013-12-08 04:25:00,10.7,3.5,30.43,ENE,57,4.0,5.0,72,0.00,,---,0.00,VWS V14.00,2013-12-08 10:25:00,
2013-12-08 04:27:00,10.7,3.2,30.43,ENE,60,0.0,5.0,71,0.00,,---,0.00,VWS V14.00,2013-12-08 10:27:00,
2013-12-08 04:30:00,10.7,3.5,30.42,ENE,76,4.0,5.0,72,0.00,,---,0.00,VWS V14.00,2013-12-08 10:30:00,
2013-12-08 04:32:00,10.7,3.2,30.42,NNE,31,6.0,6.0,71,0.00,,---,0.00,VWS V14.00,2013-12-08 10:32:00,
2013-12-08 04:35:00,10.7,3.2,30.43,NE,38,0.0,6.0,71,0.00,,---,0.00,VWS V14.00,2013-12-08 10:35:00,
2013-12-08 04:37:00,10.8,3.3,30.43,NE,37,0.0,4.0,71,0.00,,---,0.00,VWS V14.00,2013-12-08 10:37:00,
2013-12-08 04:40:00,10.8,3.6,30.42,NE,41,1.0,5.0,72,0.00,,---,0.00,VWS V14.00,2013-12-08 10:40:00,
2013-12-08 04:42:00,10.8,3.3,30.43,ENE,71,2.0,4.0,71,0.00,,---,0.00,VWS V14.00,2013-12-08 10:42:00,
2013-12-08 04:45:00,10.8,3.3,30.42,ENE,61,1.0,4.0,71,0.00,,---,0.00,VWS V14.00,2013-12-08 10:45:00,
2013-12-08 04:47:00,10.8,3.0,30.42,NE,48,2.0,4.0,70,0.00,,---,0.00,VWS V14.00,2013-12-08 10:47:00,
2013-12-08 04:50:00,10.7,2.9,30.42,East,80,3.0,5.0,70,0.00,,---,0.00,VWS V14.00,2013-12-08 10:50:00,
2013-12-08 04:52:00,10.7,2.9,30.42,ENE,68,2.0,4.0,70,0.00,,---,0.00,VWS V14.00,2013-12-08 10:52:00,
2013-12-08 04:55:00,10.8,3.0,30.42,ENE,66,2.0,4.0,70,0.00,,---,0.00,VWS V14.00,2013-12-08 10:55:00,
2013-12-08 04:57:00,10.8,3.3,30.42,NE,48,0.0,4.0,71,0.00,,---,0.00,VWS V14.00,2013-12-08 10:57:00,
2013-12-08 05:00:00,10.8,3.3,30.42,ENE,61,2.0,4.0,71,0.00,,---,0.00,VWS V14.00,2013-12-08 11:00:00,
2013-12-08 05:02:00,10.8,3.0,30.43,ENE,70,1.0,3.0,70,0.00,,---,0.00,VWS V14.00,2013-12-08 11:02:00,
2013-12-08 05:05:00,10.8,3.0,30.43,ENE,59,2.0,3.0,70,0.00,,---,0.00,VWS V14.00,2013-12-08 11:05:00,
2013-12-08 05:07:00,10.9,3.0,30.43,ENE,59,0.0,2.0,70,0.00,,---,0.00,VWS V14.00,2013-12-08 11:07:00,
2013-12-08 05:10:00,10.9,3.0,30.43,NE,56,1.0,2.0,70,0.00,,---,0.00,VWS V14.00,2013-12-08 11:10:00,
2013-12-08 05:12:00,10.9,3.0,30.42,NE,36,0.0,3.0,70,0.00,,---,0.00,VWS V14.00,2013-12-08 11:12:00,
2013-12-08 05:15:00,10.9,3.0,30.42,NE,36,0.0,3.0,70,0.00,,---,0.00,VWS V14.00,2013-12-08 11:15:00,
2013-12-08 05:17:00,10.9,3.0,30.42,NNE,25,2.0,3.0,70,0.00,,---,0.00,VWS V14.00,2013-12-08 11:17:00,
2013-12-08 05:20:00,10.9,3.0,30.42,NNE,25,0.0,3.0,70,0.00,,---,0.00,VWS V14.00,2013-12-08 11:20:00,
2013-12-08 05:22:00,10.8,2.6,30.42,NE,49,0.0,5.0,69,0.00,,---,0.00,VWS V14.00,2013-12-08 11:22:00,
2013-12-08 05:25:00,10.8,2.6,30.42,NNE,27,2.0,5.0,69,0.00,,---,0.00,VWS V14.00,2013-12-08 11:25:00,
2013-12-08 05:27:00,10.8,2.6,30.41,ENE,67,0.0,4.0,69,0.00,,---,0.00,VWS V14.00,2013-12-08 11:27:00,
2013-12-08 05:30:00,10.8,2.6,30.41,ENE,61,0.0,4.0,69,0.00,,---,0.00,VWS V14.00,2013-12-08 11:30:00,
2013-12-08 05:32:00,10.8,3.0,30.42,ESE,104,0.0,4.0,70,0.00,,---,0.00,VWS V14.00,2013-12-08 11:32:00,
2013-12-08 05:35:00,10.8,3.0,30.42,ESE,105,1.0,4.0,70,0.00,,---,0.00,VWS V14.00,2013-12-08 11:35:00,
2013-12-08 05:37:00,10.9,3.4,30.42,ENE,77,0.0,2.0,71,0.00,,---,0.00,VWS V14.00,2013-12-08 11:37:00,
2013-12-08 05:40:00,10.9,3.4,30.42,ENE,76,0.0,2.0,71,0.00,,---,0.00,VWS V14.00,2013-12-08 11:40:00,
2013-12-08 05:42:00,10.9,3.7,30.41,ENE,76,0.0,4.0,72,0.00,,---,0.00,VWS V14.00,2013-12-08 11:42:00,
2013-12-08 05:45:00,10.9,3.7,30.41,ENE,72,2.0,4.0,72,0.00,,---,0.00,VWS V14.00,2013-12-08 11:45:00,
2013-12-08 05:47:00,10.9,3.7,30.41,NE,53,1.0,4.0,72,0.00,,---,0.00,VWS V14.00,2013-12-08 11:47:00,
2013-12-08 05:50:00,10.9,3.7,30.41,NE,54,0.0,4.0,72,0.00,,---,0.00,VWS V14.00,2013-12-08 11:50:00,
2013-12-08 05:52:00,10.8,3.6,30.41,ENE,61,1.0,4.0,72,0.00,,---,0.00,VWS V14.00,2013-12-08 11:52:00,
2013-12-08 05:55:00,10.8,3.6,30.41,ENE,62,0.0,4.0,72,0.00,,---,0.00,VWS V14.00,2013-12-08 11:55:00,
2013-12-08 05:57:00,10.9,3.7,30.41,ENE,68,1.0,5.0,72,0.00,,---,0.00,VWS V14.00,2013-12-08 11:57:00,
2013-12-08 06:00:00,10.9,3.7,30.41,NE,50,5.0,5.0,72,0.00,,---,0.00,VWS V14.00,2013-12-08 12:00:00,
2013-12-08 06:02:00,10.9,3.7,30.41,NNE,32,1.0,6.0,72,0.00,,---,0.00,VWS V14.00,2013-12-08 12:02:00,
2013-12-08 06:05:00,10.8,3.6,30.41,NE,48,3.0,6.0,72,0.00,,---,0.00,VWS V14.00,2013-12-08 12:05:00,
2013-12-08 06:07:00,10.8,3.6,30.41,ENE,63,0.0,5.0,72,0.00,,---,0.00,VWS V14.00,2013-12-08 12:07:00,
2013-12-08 06:10:00,10.8,3.6,30.40,NE,36,0.0,5.0,72,0.00,,---,0.00,VWS V14.00,2013-12-08 12:10:00,
2013-12-08 06:12:00,10.8,3.6,30.40,ESE,104,1.0,4.0,72,0.00,,---,0.00,VWS V14.00,2013-12-08 12:12:00,
2013-12-08 06:15:00,10.8,3.6,30.40,NE,55,3.0,4.0,72,0.00,,---,0.00,VWS V14.00,2013-12-08 12:15:00,
2013-12-08 06:17:00,10.8,3.6,30.39,NE,36,0.0,3.0,72,0.00,,---,0.00,VWS V14.00,2013-12-08 12:17:00,
2013-12-08 06:20:00,10.8,3.6,30.39,ESE,106,3.0,4.0,72,0.00,,---,0.00,VWS V14.00,2013-12-08 12:20:00,
2013-12-08 06:22:00,10.8,3.9,30.39,ESE,105,1.0,4.0,73,0.00,,---,0.00,VWS V14.00,2013-12-08 12:22:00,
2013-12-08 06:25:00,10.9,4.0,30.39,ENE,76,3.0,4.0,73,0.00,,---,0.00,VWS V14.00,2013-12-08 12:25:00,
2013-12-08 06:27:00,10.9,4.0,30.38,ESE,110,1.0,5.0,73,0.00,,---,0.00,VWS V14.00,2013-12-08 12:27:00,
2013-12-08 06:30:00,10.9,4.0,30.38,ENE,64,6.0,6.0,73,0.00,,---,0.00,VWS V14.00,2013-12-08 12:30:00,
2013-12-08 06:32:00,10.9,3.7,30.38,ESE,118,5.0,7.0,72,0.00,,---,0.00,VWS V14.00,2013-12-08 12:32:00,
2013-12-08 06:35:00,10.9,3.7,30.38,East,99,0.0,7.0,72,0.00,,---,0.00,VWS V14.00,2013-12-08 12:35:00,
2013-12-08 06:37:00,10.9,4.0,30.38,NE,46,0.0,5.0,73,0.00,,---,0.00,VWS V14.00,2013-12-08 12:37:00,
2013-12-08 06:40:00,10.9,3.7,30.38,NE,44,2.0,5.0,72,0.00,,---,0.00,VWS V14.00,2013-12-08 12:40:00,
2013-12-08 06:42:00,10.9,3.7,30.38,ENE,72,0.0,7.0,72,0.00,,---,0.00,VWS V14.00,2013-12-08 12:42:00,
2013-12-08 06:45:00,10.9,3.7,30.38,East,94,0.0,7.0,72,0.00,,---,0.00,VWS V14.00,2013-12-08 12:45:00,
2013-12-08 06:47:00,10.9,3.7,30.39,ENE,68,4.0,7.0,72,0.00,,---,0.00,VWS V14.00,2013-12-08 12:47:00,
2013-12-08 06:50:00,10.9,3.4,30.39,NE,48,3.0,7.0,71,0.00,,---,0.00,VWS V14.00,2013-12-08 12:50:00,
2013-12-08 06:52:00,10.9,3.4,30.39,ENE,59,1.0,6.0,71,0.00,,---,0.00,VWS V14.00,2013-12-08 12:52:00,
2013-12-08 06:55:00,10.9,3.4,30.39,NE,53,6.0,7.0,71,0.00,,---,0.00,VWS V14.00,2013-12-08 12:55:00,
2013-12-08 06:57:00,10.9,3.4,30.39,NE,49,2.0,6.0,71,0.00,,---,0.00,VWS V14.00,2013-12-08 12:57:00,
2013-12-08 07:00:00,10.9,3.4,30.40,East,84,0.0,6.0,71,0.00,,---,0.00,VWS V14.00,2013-12-08 13:00:00,
2013-12-08 07:02:00,10.9,3.4,30.40,ENE,59,1.0,4.0,71,0.00,,---,0.00,VWS V14.00,2013-12-08 13:02:00,
2013-12-08 07:05:00,11.0,3.8,30.40,East,99,2.0,5.0,72,0.00,,---,0.00,VWS V14.00,2013-12-08 13:05:00,
2013-12-08 07:07:00,11.0,3.8,30.39,East,99,0.0,4.0,72,0.00,,---,0.00,VWS V14.00,2013-12-08 13:07:00,
2013-12-08 07:10:00,11.0,3.8,30.39,NE,46,2.0,5.0,72,0.00,,---,0.00,VWS V14.00,2013-12-08 13:10:00,
2013-12-08 07:12:00,11.0,3.8,30.38,East,86,4.0,8.0,72,0.00,,---,0.00,VWS V14.00,2013-12-08 13:12:00,
2013-12-08 07:15:00,11.0,3.5,30.38,East,82,2.0,8.0,71,0.00,,---,0.00,VWS V14.00,2013-12-08 13:15:00,
2013-12-08 07:17:00,11.0,3.5,30.38,ESE,103,0.0,9.0,71,0.00,,---,0.00,VWS V14.00,2013-12-08 13:17:00,
2013-12-08 07:20:00,11.0,3.5,30.38,SE,127,4.0,9.0,71,0.00,,---,0.00,VWS V14.00,2013-12-08 13:20:00,
2013-12-08 07:22:00,11.0,3.5,30.37,ENE,68,3.0,9.0,71,0.00,,---,0.00,VWS V14.00,2013-12-08 13:22:00,
2013-12-08 07:25:00,11.0,3.5,30.37,ENE,76,0.0,9.0,71,0.00,,---,0.00,VWS V14.00,2013-12-08 13:25:00,
2013-12-08 07:27:00,11.0,3.5,30.37,NE,49,1.0,5.0,71,0.00,,---,0.00,VWS V14.00,2013-12-08 13:27:00,
2013-12-08 07:30:00,11.1,3.5,30.37,ENE,68,4.0,5.0,71,0.00,,---,0.00,VWS V14.00,2013-12-08 13:30:00,
2013-12-08 07:32:00,11.1,3.5,30.37,NE,56,2.0,7.0,71,0.00,,---,0.00,VWS V14.00,2013-12-08 13:32:00,
2013-12-08 07:35:00,11.1,3.5,30.37,NNE,33,7.0,7.0,71,0.00,,---,0.00,VWS V14.00,2013-12-08 13:35:00,
2013-12-08 07:37:00,11.0,3.5,30.36,ENE,73,2.0,7.0,71,0.00,,---,0.00,VWS V14.00,2013-12-08 13:37:00,
2013-12-08 07:40:00,11.0,3.5,30.36,ENE,76,0.0,7.0,71,0.00,,---,0.00,VWS V14.00,2013-12-08 13:40:00,
2013-12-08 07:42:00,11.2,4.0,30.36,NNE,30,4.0,5.0,72,0.00,,---,0.00,VWS V14.00,2013-12-08 13:42:00,
2013-12-08 07:45:00,11.2,4.0,30.36,NE,41,1.0,5.0,72,0.00,,---,0.00,VWS V14.00,2013-12-08 13:45:00,
2013-12-08 07:47:00,11.3,4.1,30.37,ENE,65,1.0,5.0,72,0.00,,---,0.00,VWS V14.00,2013-12-08 13:47:00,
2013-12-08 07:50:00,11.3,4.1,30.37,ENE,60,1.0,5.0,72,0.00,,---,0.00,VWS V14.00,2013-12-08 13:50:00,
2013-12-08 07:52:00,11.4,4.4,30.37,ENE,61,3.0,4.0,73,0.00,,---,0.00,VWS V14.00,2013-12-08 13:52:00,
2013-12-08 07:55:00,11.4,4.1,30.36,NNE,19,1.0,6.0,72,0.00,,---,0.00,VWS V14.00,2013-12-08 13:55:00,
2013-12-08 07:57:00,11.3,4.1,30.36,East,79,5.0,5.0,72,0.00,,---,0.00,VWS V14.00,2013-12-08 13:57:00,
2013-12-08 08:00:00,11.3,4.1,30.35,ENE,74,4.0,7.0,72,0.00,,---,0.00,VWS V14.00,2013-12-08 14:00:00,
2013-12-08 08:02:00,11.3,4.1,30.35,NE,40,3.0,9.0,72,0.00,,---,0.00,VWS V14.00,2013-12-08 14:02:00,
2013-12-08 08:05:00,11.3,4.3,30.35,East,86,1.0,9.0,73,0.00,,---,0.00,VWS V14.00,2013-12-08 14:05:00,
2013-12-08 08:07:00,11.4,4.4,30.35,East,82,1.0,6.0,73,0.00,,---,0.00,VWS V14.00,2013-12-08 14:07:00,
2013-12-08 08:10:00,11.4,4.4,30.35,ENE,76,2.0,6.0,73,0.00,,---,0.00,VWS V14.00,2013-12-08 14:10:00,
2013-12-08 08:12:00,11.6,4.9,30.35,ESE,107,4.0,7.0,74,0.00,,---,0.00,VWS V14.00,2013-12-08 14:12:00,
2013-12-08 08:15:00,11.6,4.6,30.35,ENE,58,4.0,8.0,73,0.00,,---,0.00,VWS V14.00,2013-12-08 14:15:00,
2013-12-08 08:17:00,11.7,4.7,30.34,NNE,25,1.0,6.0,73,0.00,,---,0.00,VWS V14.00,2013-12-08 14:17:00,
2013-12-08 08:20:00,11.7,4.4,30.34,East,90,3.0,7.0,72,0.00,,---,0.00,VWS V14.00,2013-12-08 14:20:00,
2013-12-08 08:22:00,11.8,4.2,30.35,East,91,4.0,6.0,71,0.00,,---,0.00,VWS V14.00,2013-12-08 14:22:00,
2013-12-08 08:25:00,11.9,4.3,30.35,SE,128,6.0,6.0,71,0.00,,---,0.00,VWS V14.00,2013-12-08 14:25:00,
2013-12-08 08:27:00,11.9,4.0,30.35,NE,55,6.0,11.0,70,0.00,,---,0.00,VWS V14.00,2013-12-08 14:27:00,
2013-12-08 08:30:00,11.9,3.7,30.35,NE,55,2.0,11.0,69,0.00,,---,0.00,VWS V14.00,2013-12-08 14:30:00,
2013-12-08 08:32:00,11.9,3.4,30.35,ENE,64,0.0,7.0,68,0.00,,---,0.00,VWS V14.00,2013-12-08 14:32:00,
2013-12-08 08:35:00,11.9,3.4,30.35,East,90,1.0,11.0,68,0.00,,---,0.00,VWS V14.00,2013-12-08 14:35:00,
2013-12-08 08:37:00,12.0,3.5,30.35,East,80,5.0,11.0,68,0.00,,---,0.00,VWS V14.00,2013-12-08 14:37:00,
2013-12-08 08:40:00,12.0,3.5,30.35,East,93,0.0,11.0,68,0.00,,---,0.00,VWS V14.00,2013-12-08 14:40:00,
2013-12-08 08:42:00,12.1,3.9,30.35,NE,36,0.0,7.0,69,0.00,,---,0.00,VWS V14.00,2013-12-08 14:42:00,
2013-12-08 08:45:00,12.1,3.9,30.35,ENE,78,0.0,7.0,69,0.00,,---,0.00,VWS V14.00,2013-12-08 14:45:00,
2013-12-08 08:47:00,12.2,4.0,30.34,East,88,7.0,10.0,69,0.00,,---,0.00,VWS V14.00,2013-12-08 14:47:00,
2013-12-08 08:50:00,12.2,3.7,30.34,East,80,1.0,10.0,68,0.00,,---,0.00,VWS V14.00,2013-12-08 14:50:00,
2013-12-08 08:52:00,12.3,3.8,30.34,East,95,2.0,8.0,68,0.00,,---,0.00,VWS V14.00,2013-12-08 14:52:00,
2013-12-08 08:55:00,12.3,3.8,30.34,NE,53,3.0,8.0,68,0.00,,---,0.00,VWS V14.00,2013-12-08 14:55:00,
2013-12-08 08:57:00,12.3,3.5,30.34,East,82,1.0,10.0,67,0.00,,---,0.00,VWS V14.00,2013-12-08 14:57:00,
2013-12-08 09:00:00,12.3,3.5,30.34,ENE,60,3.0,10.0,67,0.00,,---,0.00,VWS V14.00,2013-12-08 15:00:00,
2013-12-08 09:02:00,12.4,3.5,30.34,East,88,2.0,10.0,67,0.00,,---,0.00,VWS V14.00,2013-12-08 15:02:00,
2013-12-08 09:05:00,12.4,3.9,30.34,East,99,0.0,10.0,68,0.00,,---,0.00,VWS V14.00,2013-12-08 15:05:00,
2013-12-08 09:07:00,12.5,4.0,30.34,NNE,25,1.0,5.0,68,0.00,,---,0.00,VWS V14.00,2013-12-08 15:07:00,
2013-12-08 09:10:00,12.6,4.1,30.34,NE,38,4.0,5.0,68,0.00,,---,0.00,VWS V14.00,2013-12-08 15:10:00,
2013-12-08 09:12:00,12.6,4.1,30.34,East,90,6.0,9.0,68,0.00,,---,0.00,VWS V14.00,2013-12-08 15:12:00,
2013-12-08 09:15:00,12.7,4.5,30.34,East,98,4.0,9.0,69,0.00,,---,0.00,VWS V14.00,2013-12-08 15:15:00,
2013-12-08 09:17:00,12.6,4.7,30.33,East,82,2.0,6.0,70,0.00,,---,0.00,VWS V14.00,2013-12-08 15:17:00,
2013-12-08 09:20:00,12.7,4.8,30.33,ENE,60,3.0,6.0,70,0.00,,---,0.00,VWS V14.00,2013-12-08 15:20:00,
2013-12-08 09:22:00,12.7,5.1,30.33,East,86,0.0,6.0,71,0.00,,---,0.00,VWS V14.00,2013-12-08 15:22:00,
2013-12-08 09:25:00,12.8,5.2,30.33,NE,40,3.0,9.0,71,0.00,,---,0.00,VWS V14.00,2013-12-08 15:25:00,
2013-12-08 09:27:00,12.8,5.2,30.33,NE,52,4.0,7.0,71,0.00,,---,0.00,VWS V14.00,2013-12-08 15:27:00,
2013-12-08 09:30:00,13.0,5.4,30.33,ENE,74,0.0,7.0,71,0.00,,---,0.00,VWS V14.00,2013-12-08 15:30:00,
2013-12-08 09:32:00,13.0,5.4,30.33,ESE,106,4.0,6.0,71,0.00,,---,0.00,VWS V14.00,2013-12-08 15:32:00,
2013-12-08 09:35:00,13.0,5.1,30.33,East,79,3.0,6.0,70,0.00,,---,0.00,VWS V14.00,2013-12-08 15:35:00,
2013-12-08 09:37:00,13.0,5.1,30.33,ENE,75,6.0,7.0,70,0.00,,---,0.00,VWS V14.00,2013-12-08 15:37:00,
2013-12-08 09:40:00,13.1,5.2,30.33,ESE,113,4.0,7.0,70,0.00,,---,0.00,VWS V14.00,2013-12-08 15:40:00,
2013-12-08 09:42:00,13.2,5.3,30.33,NE,49,3.0,7.0,70,0.00,,---,0.00,VWS V14.00,2013-12-08 15:42:00,
2013-12-08 09:45:00,13.3,5.4,30.33,ENE,68,0.0,7.0,70,0.00,,---,0.00,VWS V14.00,2013-12-08 15:45:00,
2013-12-08 09:47:00,13.5,5.6,30.33,NE,48,6.0,7.0,70,0.00,,---,0.00,VWS V14.00,2013-12-08 15:47:00,
2013-12-08 09:50:00,13.5,5.6,30.33,East,82,2.0,9.0,70,0.00,,---,0.00,VWS V14.00,2013-12-08 15:50:00,
2013-12-08 09:52:00,13.6,5.3,30.32,ENE,60,1.0,7.0,69,0.00,,---,0.00,VWS V14.00,2013-12-08 15:52:00,
2013-12-08 09:55:00,13.6,5.3,30.32,East,80,2.0,7.0,69,0.00,,---,0.00,VWS V14.00,2013-12-08 15:55:00,
2013-12-08 09:57:00,13.7,5.4,30.33,ESE,109,4.0,7.0,69,0.00,,---,0.00,VWS V14.00,2013-12-08 15:57:00,
2013-12-08 10:00:00,13.8,5.5,30.32,ENE,69,2.0,7.0,69,0.00,,---,0.00,VWS V14.00,2013-12-08 16:00:00,
2013-12-08 10:02:00,14.0,5.7,30.32,East,100,4.0,9.0,69,0.00,,---,0.00,VWS V14.00,2013-12-08 16:02:00,
2013-12-08 10:05:00,14.0,5.4,30.33,ENE,62,5.0,10.0,68,0.00,,---,0.00,VWS V14.00,2013-12-08 16:05:00,
2013-12-08 10:07:00,13.9,5.3,30.32,NE,55,3.0,8.0,68,0.00,,---,0.00,VWS V14.00,2013-12-08 16:07:00,
2013-12-08 10:10:00,13.9,5.3,30.32,ENE,78,1.0,8.0,68,0.00,,---,0.00,VWS V14.00,2013-12-08 16:10:00,
2013-12-08 10:12:00,13.9,5.3,30.32,ENE,78,2.0,6.0,68,0.00,,---,0.00,VWS V14.00,2013-12-08 16:12:00,
2013-12-08 10:15:00,14.0,5.4,30.32,ENE,57,1.0,6.0,68,0.00,,---,0.00,VWS V14.00,2013-12-08 16:15:00,
2013-12-08 10:17:00,14.2,5.6,30.32,NNE,30,4.0,6.0,68,0.00,,---,0.00,VWS V14.00,2013-12-08 16:17:00,
2013-12-08 10:20:00,14.4,5.8,30.32,ENE,59,1.0,6.0,68,0.00,,---,0.00,VWS V14.00,2013-12-08 16:20:00,
2013-12-08 10:22:00,14.5,5.9,30.31,NE,36,0.0,5.0,68,0.00,,---,0.00,VWS V14.00,2013-12-08 16:22:00,
2013-12-08 10:25:00,14.5,5.9,30.31,ESE,115,0.0,6.0,68,0.00,,---,0.00,VWS V14.00,2013-12-08 16:25:00,
2013-12-08 10:27:00,14.5,6.2,30.31,NE,37,2.0,6.0,69,0.00,,---,0.00,VWS V14.00,2013-12-08 16:27:00,
2013-12-08 10:30:00,14.5,6.5,30.30,East,91,3.0,7.0,70,0.00,,---,0.00,VWS V14.00,2013-12-08 16:30:00,
2013-12-08 10:32:00,14.5,6.8,30.30,ESE,102,0.0,7.0,71,0.00,,---,0.00,VWS V14.00,2013-12-08 16:32:00,
2013-12-08 10:35:00,14.6,7.2,30.30,ESE,102,0.0,7.0,72,0.00,,---,0.00,VWS V14.00,2013-12-08 16:35:00,
2013-12-08 10:37:00,14.6,7.5,30.31,ENE,62,3.0,6.0,73,0.00,,---,0.00,VWS V14.00,2013-12-08 16:37:00,
2013-12-08 10:40:00,14.5,7.7,30.30,ENE,75,0.0,6.0,74,0.00,,---,0.00,VWS V14.00,2013-12-08 16:40:00,
2013-12-08 10:42:00,14.5,8.0,30.30,East,86,1.0,7.0,75,0.00,,---,0.00,VWS V14.00,2013-12-08 16:42:00,
2013-12-08 10:45:00,14.5,8.3,30.30,East,87,3.0,7.0,76,0.00,,---,0.00,VWS V14.00,2013-12-08 16:45:00,
2013-12-08 10:47:00,14.5,8.6,30.29,NE,51,0.0,4.0,77,0.00,,---,0.00,VWS V14.00,2013-12-08 16:47:00,
2013-12-08 10:50:00,14.6,9.0,30.29,ENE,59,1.0,5.0,78,0.00,,---,0.00,VWS V14.00,2013-12-08 16:50:00,
2013-12-08 10:52:00,14.8,9.5,30.28,ENE,61,7.0,7.0,79,0.00,,---,0.00,VWS V14.00,2013-12-08 16:52:00,
2013-12-08 10:55:00,14.6,9.3,30.28,East,79,5.0,7.0,79,0.00,,---,0.00,VWS V14.00,2013-12-08 16:55:00,
2013-12-08 10:57:00,14.5,9.2,30.27,East,82,0.0,7.0,79,0.00,,---,0.00,VWS V14.00,2013-12-08 16:57:00,
2013-12-08 11:00:00,14.6,9.6,30.27,ENE,60,5.0,7.0,80,0.00,,---,0.00,VWS V14.00,2013-12-08 17:00:00,
2013-12-08 11:02:00,14.7,9.9,30.27,NE,41,1.0,7.0,81,0.00,,---,0.00,VWS V14.00,2013-12-08 17:02:00,
2013-12-08 11:05:00,14.8,10.0,30.27,ENE,65,5.0,7.0,81,0.00,,---,0.00,VWS V14.00,2013-12-08 17:05:00,
2013-12-08 11:07:00,14.8,10.3,30.26,NE,51,2.0,7.0,82,0.00,,---,0.00,VWS V14.00,2013-12-08 17:07:00,
2013-12-08 11:10:00,14.9,10.4,30.27,ENE,60,4.0,7.0,82,0.00,,---,0.00,VWS V14.00,2013-12-08 17:10:00,
2013-12-08 11:12:00,15.1,10.9,30.26,NNE,33,0.0,6.0,83,0.00,,---,0.00,VWS V14.00,2013-12-08 17:12:00,
2013-12-08 11:15:00,15.3,11.1,30.26,NE,41,0.0,6.0,83,0.00,,---,0.00,VWS V14.00,2013-12-08 17:15:00,
2013-12-08 11:17:00,15.4,11.2,30.25,ENE,63,3.0,6.0,83,0.00,,---,0.00,VWS V14.00,2013-12-08 17:17:00,
2013-12-08 11:20:00,15.4,11.4,30.25,East,92,0.0,6.0,84,0.00,,---,0.00,VWS V14.00,2013-12-08 17:20:00,
2013-12-08 11:22:00,15.4,11.4,30.26,ESE,114,5.0,6.0,84,0.00,,---,0.00,VWS V14.00,2013-12-08 17:22:00,
2013-12-08 11:25:00,15.4,11.4,30.26,East,90,2.0,10.0,84,0.00,,---,0.00,VWS V14.00,2013-12-08 17:25:00,
2013-12-08 11:27:00,15.3,11.3,30.25,ESE,121,4.0,7.0,84,0.00,,---,0.00,VWS V14.00,2013-12-08 17:27:00,
2013-12-08 11:30:00,15.4,11.7,30.25,ESE,109,2.0,7.0,85,0.00,,---,0.00,VWS V14.00,2013-12-08 17:30:00,
2013-12-08 11:32:00,15.5,11.8,30.25,East,96,0.0,5.0,85,0.00,,---,0.00,VWS V14.00,2013-12-08 17:32:00,
2013-12-08 11:35:00,15.7,12.0,30.25,East,95,3.0,5.0,85,0.00,,---,0.00,VWS V14.00,2013-12-08 17:35:00,
2013-12-08 11:37:00,15.6,11.9,30.24,ENE,69,2.0,7.0,85,0.00,,---,0.00,VWS V14.00,2013-12-08 17:37:00,
2013-12-08 11:40:00,15.5,11.8,30.24,East,91,3.0,7.0,85,0.00,,---,0.00,VWS V14.00,2013-12-08 17:40:00,
2013-12-08 11:42:00,15.6,11.9,30.23,NE,41,4.0,6.0,85,0.00,,---,0.00,VWS V14.00,2013-12-08 17:42:00,
2013-12-08 11:45:00,15.6,12.2,30.23,NE,55,0.0,6.0,86,0.00,,---,0.00,VWS V14.00,2013-12-08 17:45:00,
2013-12-08 11:47:00,15.8,12.4,30.23,NE,55,0.0,7.0,86,0.00,,---,0.00,VWS V14.00,2013-12-08 17:47:00,
2013-12-08 11:50:00,15.8,12.4,30.23,ESE,105,4.0,10.0,86,0.00,,---,0.00,VWS V14.00,2013-12-08 17:50:00,
2013-12-08 11:52:00,15.7,12.3,30.22,East,96,1.0,7.0,86,0.00,,---,0.00,VWS V14.00,2013-12-08 17:52:00,
2013-12-08 11:55:00,15.7,12.3,30.22,NE,47,0.0,7.0,86,0.00,,---,0.00,VWS V14.00,2013-12-08 17:55:00,
2013-12-08 11:57:00,15.8,12.4,30.22,East,83,3.0,6.0,86,0.00,,---,0.00,VWS V14.00,2013-12-08 17:57:00,
2013-12-08 12:00:00,15.8,12.6,30.22,NE,43,0.0,6.0,87,0.00,,---,0.00,VWS V14.00,2013-12-08 18:00:00,
2013-12-08 12:02:00,15.9,12.7,30.22,ENE,64,0.0,6.0,87,0.00,,---,0.00,VWS V14.00,2013-12-08 18:02:00,
2013-12-08 12:05:00,16.0,12.8,30.21,NE,38,4.0,6.0,87,0.00,,---,0.00,VWS V14.00,2013-12-08 18:05:00,
2013-12-08 12:07:00,16.2,13.0,30.21,NNE,24,5.0,5.0,87,0.00,,---,0.00,VWS V14.00,2013-12-08 18:07:00,
2013-12-08 12:10:00,16.3,13.4,30.21,ESE,102,3.0,5.0,88,0.00,,---,0.00,VWS V14.00,2013-12-08 18:10:00,
2013-12-08 12:12:00,16.3,13.1,30.21,NE,39,1.0,6.0,87,0.00,,---,0.00,VWS V14.00,2013-12-08 18:12:00,
2013-12-08 12:15:00,16.3,13.1,30.21,NE,49,1.0,6.0,87,0.00,,---,0.00,VWS V14.00,2013-12-08 18:15:00,
2013-12-08 12:17:00,16.3,13.1,30.21,ENE,68,0.0,6.0,87,0.00,,---,0.00,VWS V14.00,2013-12-08 18:17:00,
2013-12-08 12:20:00,16.4,13.5,30.21,ESE,106,2.0,6.0,88,0.00,,---,0.00,VWS V14.00,2013-12-08 18:20:00,
2013-12-08 12:22:00,16.5,13.6,30.20,ESE,106,5.0,5.0,88,0.00,,---,0.00,VWS V14.00,2013-12-08 18:22:00,
2013-12-08 12:25:00,16.5,13.6,30.20,ENE,63,2.0,5.0,88,0.00,,---,0.00,VWS V14.00,2013-12-08 18:25:00,
2013-12-08 12:27:00,16.7,13.8,30.20,ENE,63,4.0,9.0,88,0.00,,---,0.00,VWS V14.00,2013-12-08 18:27:00,
2013-12-08 12:30:00,16.7,13.8,30.20,NE,53,5.0,9.0,88,0.00,,---,0.00,VWS V14.00,2013-12-08 18:30:00,
2013-12-08 12:32:00,16.7,13.8,30.20,ESE,111,3.0,6.0,88,0.00,,---,0.00,VWS V14.00,2013-12-08 18:32:00,
2013-12-08 12:35:00,16.7,13.8,30.20,East,83,4.0,7.0,88,0.00,,---,0.00,VWS V14.00,2013-12-08 18:35:00,
2013-12-08 12:37:00,16.7,13.8,30.19,East,79,2.0,13.0,88,0.00,,---,0.00,VWS V14.00,2013-12-08 18:37:00,
2013-12-08 12:40:00,16.8,13.9,30.19,East,94,3.0,13.0,88,0.00,,---,0.00,VWS V14.00,2013-12-08 18:40:00,
2013-12-08 12:42:00,16.8,13.9,30.19,ENE,74,2.0,9.0,88,0.00,,---,0.00,VWS V14.00,2013-12-08 18:42:00,
2013-12-08 12:45:00,16.8,13.9,30.19,East,92,2.0,9.0,88,0.00,,---,0.00,VWS V14.00,2013-12-08 18:45:00,
2013-12-08 12:47:00,17.1,14.2,30.18,NE,44,0.0,4.0,88,0.00,,---,0.00,VWS V14.00,2013-12-08 18:47:00,
2013-12-08 12:50:00,17.1,14.2,30.18,ENE,76,6.0,9.0,88,0.00,,---,0.00,VWS V14.00,2013-12-08 18:50:00,
2013-12-08 12:52:00,17.1,14.2,30.18,ENE,64,5.0,9.0,88,0.00,,---,0.00,VWS V14.00,2013-12-08 18:52:00,
2013-12-08 12:55:00,17.1,14.2,30.18,ESE,115,4.0,9.0,88,0.00,,---,0.00,VWS V14.00,2013-12-08 18:55:00,
2013-12-08 12:57:00,17.1,14.2,30.17,ENE,59,4.0,7.0,88,0.00,,---,0.00,VWS V14.00,2013-12-08 18:57:00,
2013-12-08 13:00:00,17.1,14.2,30.17,NE,56,0.0,9.0,88,0.00,,---,0.00,VWS V14.00,2013-12-08 19:00:00,
2013-12-08 13:02:00,17.1,14.2,30.17,ENE,78,1.0,10.0,88,0.00,,---,0.00,VWS V14.00,2013-12-08 19:02:00,
2013-12-08 13:05:00,17.0,14.1,30.16,NE,48,5.0,10.0,88,0.00,,---,0.00,VWS V14.00,2013-12-08 19:05:00,
2013-12-08 13:07:00,17.1,14.2,30.16,ENE,61,2.0,7.0,88,0.00,,---,0.00,VWS V14.00,2013-12-08 19:07:00,
2013-12-08 13:10:00,17.2,14.5,30.16,ENE,71,3.0,10.0,89,0.00,,---,0.00,VWS V14.00,2013-12-08 19:10:00,
2013-12-08 13:12:00,17.2,14.5,30.15,ESE,121,0.0,5.0,89,0.00,,---,0.00,VWS V14.00,2013-12-08 19:12:00,
2013-12-08 13:15:00,17.2,14.5,30.15,SE,128,1.0,6.0,89,0.00,,---,0.00,VWS V14.00,2013-12-08 19:15:00,
2013-12-08 13:17:00,17.3,14.6,30.15,ENE,76,1.0,7.0,89,0.00,,---,0.00,VWS V14.00,2013-12-08 19:17:00,
2013-12-08 13:20:00,17.3,14.6,30.15,ENE,72,2.0,7.0,89,0.00,,---,0.00,VWS V14.00,2013-12-08 19:20:00,
2013-12-08 13:22:00,17.4,14.7,30.14,ENE,57,0.0,4.0,89,0.00,,---,0.00,VWS V14.00,2013-12-08 19:22:00,
2013-12-08 13:25:00,17.5,14.8,30.14,ENE,64,0.0,4.0,89,0.00,,---,0.00,VWS V14.00,2013-12-08 19:25:00,
2013-12-08 13:27:00,17.6,15.2,30.14,ENE,67,3.0,6.0,90,0.00,,---,0.00,VWS V14.00,2013-12-08 19:27:00,
2013-12-08 13:30:00,17.5,14.8,30.14,ENE,65,1.0,6.0,89,0.00,,---,0.00,VWS V14.00,2013-12-08 19:30:00,
2013-12-08 13:32:00,17.5,15.1,30.13,East,99,0.0,5.0,90,0.00,,---,0.00,VWS V14.00,2013-12-08 19:32:00,
2013-12-08 13:35:00,17.5,15.1,30.13,NNE,33,0.0,5.0,90,0.00,,---,0.00,VWS V14.00,2013-12-08 19:35:00,
2013-12-08 13:37:00,17.6,15.2,30.13,ENE,59,1.0,7.0,90,0.00,,---,0.00,VWS V14.00,2013-12-08 19:37:00,
2013-12-08 13:40:00,17.5,14.8,30.13,NNE,16,3.0,9.0,89,0.00,,---,0.00,VWS V14.00,2013-12-08 19:40:00,
2013-12-08 13:42:00,17.5,14.8,30.12,East,79,3.0,9.0,89,0.00,,---,0.00,VWS V14.00,2013-12-08 19:42:00,
2013-12-08 13:45:00,17.5,14.8,30.12,NE,46,3.0,9.0,89,0.00,,---,0.00,VWS V14.00,2013-12-08 19:45:00,
2013-12-08 13:47:00,17.5,14.8,30.12,SE,134,5.0,9.0,89,0.00,,---,0.00,VWS V14.00,2013-12-08 19:47:00,
2013-12-08 13:50:00,17.5,14.8,30.12,NE,44,4.0,9.0,89,0.00,,---,0.00,VWS V14.00,2013-12-08 19:50:00,
2013-12-08 13:52:00,17.6,14.9,30.12,ENE,69,0.0,7.0,89,0.00,,---,0.00,VWS V14.00,2013-12-08 19:52:00,
2013-12-08 13:55:00,17.6,14.9,30.12,NNW,348,5.0,7.0,89,0.00,,---,0.00,VWS V14.00,2013-12-08 19:55:00,
2013-12-08 13:57:00,17.6,14.9,30.11,NE,55,4.0,6.0,89,0.00,,---,0.00,VWS V14.00,2013-12-08 19:57:00,
2013-12-08 14:00:00,17.6,14.9,30.12,ENE,72,4.0,7.0,89,0.00,,---,0.00,VWS V14.00,2013-12-08 20:00:00,
2013-12-08 14:02:00,17.7,15.0,30.11,NNE,31,1.0,4.0,89,0.00,,---,0.00,VWS V14.00,2013-12-08 20:02:00,
2013-12-08 14:05:00,17.7,15.3,30.11,ENE,78,2.0,5.0,90,0.00,,---,0.00,VWS V14.00,2013-12-08 20:05:00,
2013-12-08 14:07:00,17.7,15.3,30.11,NE,56,2.0,6.0,90,0.00,,---,0.00,VWS V14.00,2013-12-08 20:07:00,
2013-12-08 14:10:00,17.8,15.4,30.10,ENE,57,3.0,9.0,90,0.00,,---,0.00,VWS V14.00,2013-12-08 20:10:00,
2013-12-08 14:12:00,17.8,15.4,30.10,NNE,15,4.0,6.0,90,0.00,,---,0.00,VWS V14.00,2013-12-08 20:12:00,
2013-12-08 14:15:00,17.8,15.4,30.10,ESE,102,4.0,6.0,90,0.00,,---,0.00,VWS V14.00,2013-12-08 20:15:00,
2013-12-08 14:17:00,17.9,15.5,30.10,NE,56,3.0,8.0,90,0.00,,---,0.00,VWS V14.00,2013-12-08 20:17:00,
2013-12-08 14:20:00,18.0,15.6,30.10,NE,44,0.0,8.0,90,0.00,,---,0.00,VWS V14.00,2013-12-08 20:20:00,
2013-12-08 14:22:00,18.0,15.6,30.10,NE,49,2.0,5.0,90,0.00,,---,0.00,VWS V14.00,2013-12-08 20:22:00,
2013-12-08 14:25:00,18.1,15.7,30.09,NE,46,2.0,5.0,90,0.00,,---,0.00,VWS V14.00,2013-12-08 20:25:00,
2013-12-08 14:27:00,18.1,15.7,30.09,ENE,65,3.0,5.0,90,0.00,,---,0.00,VWS V14.00,2013-12-08 20:27:00,
2013-12-08 14:30:00,18.1,15.7,30.09,ENE,63,2.0,5.0,90,0.00,,---,0.00,VWS V14.00,2013-12-08 20:30:00,
2013-12-08 14:32:00,18.1,15.7,30.09,ENE,67,0.0,5.0,90,0.00,,---,0.00,VWS V14.00,2013-12-08 20:32:00,
2013-12-08 14:35:00,18.1,15.7,30.09,East,87,1.0,5.0,90,0.00,,---,0.00,VWS V14.00,2013-12-08 20:35:00,
2013-12-08 14:37:00,18.1,15.7,30.09,NE,51,2.0,9.0,90,0.00,,---,0.00,VWS V14.00,2013-12-08 20:37:00,
2013-12-08 14:40:00,18.1,15.7,30.09,NE,56,1.0,9.0,90,0.00,,---,0.00,VWS V14.00,2013-12-08 20:40:00,
2013-12-08 14:42:00,18.1,15.7,30.09,NE,38,1.0,5.0,90,0.00,,---,0.00,VWS V14.00,2013-12-08 20:42:00,
2013-12-08 14:45:00,18.1,15.4,30.09,North,355,2.0,6.0,89,0.00,,---,0.00,VWS V14.00,2013-12-08 20:45:00,
2013-12-08 14:47:00,18.0,15.3,30.08,NNE,16,0.0,4.0,89,0.00,,---,0.00,VWS V14.00,2013-12-08 20:47:00,
2013-12-08 14:50:00,17.9,15.2,30.09,NE,54,3.0,6.0,89,0.00,,---,0.00,VWS V14.00,2013-12-08 20:50:00,
2013-12-08 14:52:00,17.9,15.2,30.08,NE,49,3.0,5.0,89,0.00,,---,0.00,VWS V14.00,2013-12-08 20:52:00,
2013-12-08 14:55:00,17.8,15.1,30.08,NE,55,2.0,5.0,89,0.00,,---,0.00,VWS V14.00,2013-12-08 20:55:00,
2013-12-08 14:57:00,17.8,15.1,30.08,NE,51,2.0,5.0,89,0.00,,---,0.00,VWS V14.00,2013-12-08 20:57:00,
2013-12-08 15:00:00,17.8,15.1,30.08,ENE,57,2.0,5.0,89,0.00,,---,0.00,VWS V14.00,2013-12-08 21:00:00,
2013-12-08 15:02:00,17.8,15.4,30.08,NE,53,4.0,4.0,90,0.00,,---,0.00,VWS V14.00,2013-12-08 21:02:00,
2013-12-08 15:05:00,17.9,15.5,30.08,NNE,24,0.0,4.0,90,0.00,,---,0.00,VWS V14.00,2013-12-08 21:05:00,
2013-12-08 15:07:00,17.8,15.4,30.08,NE,34,4.0,5.0,90,0.00,,---,0.00,VWS V14.00,2013-12-08 21:07:00,
2013-12-08 15:10:00,17.7,15.3,30.08,NE,52,2.0,5.0,90,0.00,,---,0.00,VWS V14.00,2013-12-08 21:10:00,
2013-12-08 15:12:00,17.7,15.3,30.08,NE,42,0.0,4.0,90,0.00,,---,0.00,VWS V14.00,2013-12-08 21:12:00,
2013-12-08 15:15:00,17.7,15.3,30.08,NE,41,0.0,4.0,90,0.00,,---,0.00,VWS V14.00,2013-12-08 21:15:00,
2013-12-08 15:17:00,17.7,15.3,30.08,NE,49,4.0,5.0,90,0.00,,---,0.00,VWS V14.00,2013-12-08 21:17:00,
2013-12-08 15:20:00,17.6,15.2,30.08,NE,49,2.0,5.0,90,0.00,,---,0.00,VWS V14.00,2013-12-08 21:20:00,
2013-12-08 15:22:00,17.6,15.2,30.08,NE,52,0.0,7.0,90,0.00,,---,0.00,VWS V14.00,2013-12-08 21:22:00,
2013-12-08 15:25:00,17.7,15.3,30.08,NE,42,1.0,7.0,90,0.00,,---,0.00,VWS V14.00,2013-12-08 21:25:00,
2013-12-08 15:27:00,17.7,15.3,30.07,NE,49,0.0,4.0,90,0.00,,---,0.00,VWS V14.00,2013-12-08 21:27:00,
2013-12-08 15:30:00,17.7,15.3,30.07,NE,38,3.0,4.0,90,0.00,,---,0.00,VWS V14.00,2013-12-08 21:30:00,
2013-12-08 15:32:00,17.7,15.5,30.07,ENE,63,1.0,3.0,91,0.00,,---,0.00,VWS V14.00,2013-12-08 21:32:00,
2013-12-08 15:35:00,17.7,15.5,30.07,NE,46,2.0,3.0,91,0.00,,---,0.00,VWS V14.00,2013-12-08 21:35:00,
2013-12-08 15:37:00,17.7,15.5,30.07,NNE,16,1.0,9.0,91,0.00,,---,0.00,VWS V14.00,2013-12-08 21:37:00,
2013-12-08 15:40:00,17.7,15.5,30.07,ENE,62,0.0,9.0,91,0.00,,---,0.00,VWS V14.00,2013-12-08 21:40:00,
2013-12-08 15:42:00,17.7,15.5,30.06,NE,38,1.0,5.0,91,0.00,,---,0.00,VWS V14.00,2013-12-08 21:42:00,
2013-12-08 15:45:00,17.7,15.5,30.06,NE,48,0.0,5.0,91,0.00,,---,0.00,VWS V14.00,2013-12-08 21:45:00,
2013-12-08 15:47:00,17.7,15.5,30.06,NE,56,1.0,6.0,91,0.00,,---,0.00,VWS V14.00,2013-12-08 21:47:00,
2013-12-08 15:50:00,17.7,15.5,30.06,NE,36,4.0,6.0,91,0.00,,---,0.00,VWS V14.00,2013-12-08 21:50:00,
2013-12-08 15:52:00,17.8,15.6,30.06,NNE,28,2.0,5.0,91,0.00,,---,0.00,VWS V14.00,2013-12-08 21:52:00,
2013-12-08 15:55:00,17.8,15.6,30.06,NNE,28,0.0,5.0,91,0.00,,---,0.00,VWS V14.00,2013-12-08 21:55:00,
2013-12-08 15:57:00,17.9,15.7,30.06,ENE,65,0.0,3.0,91,0.00,,---,0.00,VWS V14.00,2013-12-08 21:57:00,
2013-12-08 16:00:00,17.9,15.7,30.06,NE,48,0.0,3.0,91,0.00,,---,0.00,VWS V14.00,2013-12-08 22:00:00,
2013-12-08 16:02:00,18.0,15.8,30.05,NNE,18,0.0,4.0,91,0.00,,---,0.00,VWS V14.00,2013-12-08 22:02:00,
2013-12-08 16:05:00,18.0,15.8,30.05,North,9,0.0,4.0,91,0.00,,---,0.00,VWS V14.00,2013-12-08 22:05:00,
2013-12-08 16:07:00,18.0,15.8,30.05,ENE,61,0.0,4.0,91,0.00,,---,0.00,VWS V14.00,2013-12-08 22:07:00,
2013-12-08 16:10:00,18.0,15.8,30.05,NNE,24,2.0,6.0,91,0.00,,---,0.00,VWS V14.00,2013-12-08 22:10:00,
2013-12-08 16:12:00,18.1,15.9,30.04,ENE,71,2.0,4.0,91,0.00,,---,0.00,VWS V14.00,2013-12-08 22:12:00,
2013-12-08 16:15:00,18.1,15.9,30.04,NE,53,3.0,4.0,91,0.00,,---,0.00,VWS V14.00,2013-12-08 22:15:00,
2013-12-08 16:17:00,18.2,16.0,30.04,ENE,57,2.0,3.0,91,0.00,,---,0.00,VWS V14.00,2013-12-08 22:17:00,
2013-12-08 16:20:00,18.2,16.0,30.04,NE,40,4.0,4.0,91,0.00,,---,0.00,VWS V14.00,2013-12-08 22:20:00,
2013-12-08 16:22:00,18.2,16.0,30.04,ENE,68,0.0,4.0,91,0.00,,---,0.00,VWS V14.00,2013-12-08 22:22:00,
2013-12-08 16:25:00,18.2,16.0,30.04,ENE,74,0.0,4.0,91,0.00,,---,0.00,VWS V14.00,2013-12-08 22:25:00,
2013-12-08 16:27:00,18.3,16.1,30.03,ENE,64,0.0,3.0,91,0.00,,---,0.00,VWS V14.00,2013-12-08 22:27:00,
2013-12-08 16:30:00,18.3,16.1,30.03,East,90,0.0,3.0,91,0.00,,---,0.00,VWS V14.00,2013-12-08 22:30:00,
2013-12-08 16:32:00,18.4,16.2,30.03,ENE,58,1.0,5.0,91,0.00,,---,0.00,VWS V14.00,2013-12-08 22:32:00,
2013-12-08 16:35:00,18.4,16.2,30.03,NE,55,0.0,5.0,91,0.00,,---,0.00,VWS V14.00,2013-12-08 22:35:00,
2013-12-08 16:37:00,18.4,16.2,30.03,NE,50,0.0,3.0,91,0.00,,---,0.00,VWS V14.00,2013-12-08 22:37:00,
2013-12-08 16:40:00,18.4,16.2,30.03,East,91,0.0,4.0,91,0.00,,---,0.00,VWS V14.00,2013-12-08 22:40:00,
2013-12-08 16:42:00,18.5,16.3,30.02,East,82,0.0,2.0,91,0.00,,---,0.00,VWS V14.00,2013-12-08 22:42:00,
2013-12-08 16:45:00,18.5,16.3,30.02,East,82,1.0,2.0,91,0.00,,---,0.00,VWS V14.00,2013-12-08 22:45:00,
2013-12-08 16:47:00,18.6,16.4,30.02,East,88,1.0,3.0,91,0.00,,---,0.00,VWS V14.00,2013-12-08 22:47:00,
2013-12-08 16:50:00,18.6,16.4,30.02,East,86,0.0,3.0,91,0.00,,---,0.00,VWS V14.00,2013-12-08 22:50:00,
2013-12-08 16:52:00,18.6,16.4,30.02,ENE,61,2.0,3.0,91,0.00,,---,0.00,VWS V14.00,2013-12-08 22:52:00,
2013-12-08 16:55:00,18.7,16.5,30.02,NE,50,0.0,3.0,91,0.00,,---,0.00,VWS V14.00,2013-12-08 22:55:00,
2013-12-08 16:57:00,18.7,16.5,30.02,NE,54,2.0,4.0,91,0.00,,---,0.00,VWS V14.00,2013-12-08 22:57:00,
2013-12-08 17:00:00,18.8,16.6,30.02,NE,56,0.0,4.0,91,0.00,,---,0.00,VWS V14.00,2013-12-08 23:00:00,
2013-12-08 17:02:00,18.8,16.9,30.02,ENE,57,0.0,1.0,92,0.00,,---,0.00,VWS V14.00,2013-12-08 23:02:00,
2013-12-08 17:05:00,18.9,17.0,30.01,NE,56,0.0,1.0,92,0.00,,---,0.00,VWS V14.00,2013-12-08 23:05:00,
2013-12-08 17:07:00,18.9,17.0,30.01,ENE,57,1.0,3.0,92,0.00,,---,0.00,VWS V14.00,2013-12-08 23:07:00,
2013-12-08 17:10:00,18.9,17.0,30.01,NE,56,2.0,3.0,92,0.00,,---,0.00,VWS V14.00,2013-12-08 23:10:00,
2013-12-08 17:12:00,19.0,17.1,30.01,ENE,67,0.0,2.0,92,0.00,,---,0.00,VWS V14.00,2013-12-08 23:12:00,
2013-12-08 17:15:00,19.0,17.1,30.01,ENE,67,0.0,2.0,92,0.00,,---,0.00,VWS V14.00,2013-12-08 23:15:00,
2013-12-08 17:17:00,19.1,17.2,30.01,NE,38,0.0,3.0,92,0.00,,---,0.00,VWS V14.00,2013-12-08 23:17:00,
2013-12-08 17:20:00,19.1,17.2,30.00,East,98,0.0,3.0,92,0.00,,---,0.00,VWS V14.00,2013-12-08 23:20:00,
2013-12-08 17:22:00,19.2,17.3,30.00,East,83,1.0,2.0,92,0.00,,---,0.00,VWS V14.00,2013-12-08 23:22:00,
2013-12-08 17:25:00,19.2,17.3,30.00,ENE,69,2.0,2.0,92,0.00,,---,0.00,VWS V14.00,2013-12-08 23:25:00,
2013-12-08 17:27:00,19.2,17.3,30.00,ENE,68,0.0,3.0,92,0.00,,---,0.00,VWS V14.00,2013-12-08 23:27:00,
2013-12-08 17:30:00,19.2,17.3,30.00,ENE,67,1.0,3.0,92,0.00,,---,0.00,VWS V14.00,2013-12-08 23:30:00,
2013-12-08 17:32:00,19.3,17.4,30.00,NNE,26,3.0,3.0,92,0.00,,---,0.00,VWS V14.00,2013-12-08 23:32:00,
2013-12-08 17:35:00,19.3,17.4,30.00,NNE,20,0.0,4.0,92,0.00,,---,0.00,VWS V14.00,2013-12-08 23:35:00,
2013-12-08 17:37:00,19.2,17.3,30.00,NNE,21,0.0,3.0,92,0.00,,---,0.00,VWS V14.00,2013-12-08 23:37:00,
2013-12-08 17:40:00,19.1,17.2,30.00,NNE,19,0.0,3.0,92,0.00,,---,0.00,VWS V14.00,2013-12-08 23:40:00,
2013-12-08 17:42:00,19.0,17.1,30.00,NE,46,0.0,3.0,92,0.00,,---,0.00,VWS V14.00,2013-12-08 23:42:00,
2013-12-08 17:45:00,19.0,17.1,30.00,NE,46,0.0,3.0,92,0.00,,---,0.00,VWS V14.00,2013-12-08 23:45:00,
2013-12-08 17:47:00,18.8,16.9,30.00,NE,46,0.0,0.0,92,0.00,,---,0.00,VWS V14.00,2013-12-08 23:47:00,
2013-12-08 17:50:00,18.8,16.9,30.00,NE,48,0.0,0.0,92,0.00,,---,0.00,VWS V14.00,2013-12-08 23:50:00,
2013-12-08 17:52:00,18.7,16.8,30.00,North,360,0.0,4.0,92,0.00,,---,0.00,VWS V14.00,2013-12-08 23:52:00,
2013-12-08 17:55:00,18.6,16.7,30.00,North,5,0.0,4.0,92,0.00,,---,0.00,VWS V14.00,2013-12-08 23:55:00,
2013-12-08 17:57:00,18.6,16.7,30.00,NNE,23,3.0,3.0,92,0.00,,---,0.00,VWS V14.00,2013-12-08 23:57:00,
2013-12-08 18:00:00,18.6,16.7,30.00,NNE,19,1.0,3.0,92,0.00,,---,0.00,VWS V14.00,2013-12-09 00:00:00,
2013-12-08 18:02:00,18.5,18.5,29.99,NE,48,2.0,2.0,100,0.00,,---,0.00,VWS V14.00,2013-12-09 00:02:00,
2013-12-08 18:05:00,18.5,18.5,29.99,NNE,33,0.0,3.0,100,0.00,,---,0.00,VWS V14.00,2013-12-09 00:05:00,
2013-12-08 18:07:00,18.4,16.5,29.99,NE,41,0.0,3.0,92,0.00,,---,0.00,VWS V14.00,2013-12-09 00:07:00,
2013-12-08 18:10:00,18.4,16.5,29.99,NE,40,0.0,3.0,92,0.00,,---,0.00,VWS V14.00,2013-12-09 00:10:00,
2013-12-08 18:12:00,18.4,16.5,29.99,NE,51,0.0,2.0,92,0.00,,---,0.00,VWS V14.00,2013-12-09 00:12:00,
2013-12-08 18:15:00,18.4,16.5,29.99,NE,51,0.0,2.0,92,0.00,,---,0.00,VWS V14.00,2013-12-09 00:15:00,
2013-12-08 18:17:00,18.4,16.5,29.99,NE,50,0.0,3.0,92,0.00,,---,0.00,VWS V14.00,2013-12-09 00:17:00,
2013-12-08 18:20:00,18.5,16.6,29.99,ENE,60,1.0,3.0,92,0.00,,---,0.00,VWS V14.00,2013-12-09 00:20:00,
2013-12-08 18:22:00,18.5,18.5,29.99,ENE,58,0.0,3.0,100,0.00,,---,0.00,VWS V14.00,2013-12-09 00:22:00,
2013-12-08 18:25:00,18.5,18.5,29.99,ENE,58,0.0,3.0,100,0.00,,---,0.00,VWS V14.00,2013-12-09 00:25:00,
2013-12-08 18:27:00,18.5,18.5,29.99,ENE,59,0.0,3.0,100,0.00,,---,0.00,VWS V14.00,2013-12-09 00:27:00,
2013-12-08 18:30:00,18.6,16.7,29.99,NE,43,0.0,3.0,92,0.00,,---,0.00,VWS V14.00,2013-12-09 00:30:00,
2013-12-08 18:32:00,18.6,16.7,29.99,NE,43,0.0,0.0,92,0.00,,---,0.00,VWS V14.00,2013-12-09 00:32:00,
2013-12-08 18:35:00,18.6,16.7,29.99,NE,44,0.0,3.0,92,0.00,,---,0.00,VWS V14.00,2013-12-09 00:35:00,
2013-12-08 18:37:00,18.6,16.7,29.99,NE,44,0.0,3.0,92,0.00,,---,0.00,VWS V14.00,2013-12-09 00:37:00,
2013-12-08 18:40:00,18.7,16.8,29.99,East,84,0.0,3.0,92,0.00,,---,0.00,VWS V14.00,2013-12-09 00:40:00,
2013-12-08 18:42:00,18.7,16.8,29.99,ENE,67,0.0,3.0,92,0.00,,---,0.00,VWS V14.00,2013-12-09 00:42:00,
2013-12-08 18:45:00,18.7,16.8,29.99,ENE,59,1.0,3.0,92,0.00,,---,0.00,VWS V14.00,2013-12-09 00:45:00,
2013-12-08 18:47:00,18.8,16.9,29.99,NNE,27,0.0,4.0,92,0.00,,---,0.00,VWS V14.00,2013-12-09 00:47:00,
2013-12-08 18:50:00,18.7,16.8,29.99,NNE,27,0.0,4.0,92,0.00,,---,0.00,VWS V14.00,2013-12-09 00:50:00,
2013-12-08 18:52:00,18.8,16.9,29.99,NNE,26,0.0,0.0,92,0.00,,---,0.00,VWS V14.00,2013-12-09 00:52:00,
2013-12-08 18:55:00,18.8,16.9,29.99,NNE,27,0.0,0.0,92,0.00,,---,0.00,VWS V14.00,2013-12-09 00:55:00,
2013-12-08 18:57:00,18.8,16.9,29.99,NNE,27,0.0,0.0,92,0.00,,---,0.00,VWS V14.00,2013-12-09 00:57:00,
2013-12-08 19:00:00,18.8,16.9,29.99,NNE,26,0.0,0.0,92,0.00,,---,0.00,VWS V14.00,2013-12-09 01:00:00,
2013-12-08 19:02:00,18.8,16.9,29.99,NE,51,0.0,2.0,92,0.00,,---,0.00,VWS V14.00,2013-12-09 01:02:00,
2013-12-08 19:05:00,18.8,16.9,29.99,NE,51,0.0,2.0,92,0.00,,---,0.00,VWS V14.00,2013-12-09 01:05:00,
2013-12-08 19:07:00,18.9,17.0,29.99,NE,51,0.0,0.0,92,0.00,,---,0.00,VWS V14.00,2013-12-09 01:07:00,
2013-12-08 19:10:00,18.9,17.0,29.99,NE,50,0.0,0.0,92,0.00,,---,0.00,VWS V14.00,2013-12-09 01:10:00,
2013-12-08 19:12:00,18.9,17.0,29.99,NE,51,0.0,0.0,92,0.00,,---,0.00,VWS V14.00,2013-12-09 01:12:00,
2013-12-08 19:15:00,18.9,17.0,29.99,NE,51,0.0,0.0,92,0.00,,---,0.00,VWS V14.00,2013-12-09 01:15:00,
2013-12-08 19:17:00,18.9,17.0,29.99,NE,51,0.0,0.0,92,0.00,,---,0.00,VWS V14.00,2013-12-09 01:17:00,
2013-12-08 19:20:00,18.9,17.0,29.99,NE,51,0.0,0.0,92,0.00,,---,0.00,VWS V14.00,2013-12-09 01:20:00,
2013-12-08 19:22:00,18.9,17.0,29.99,NE,51,0.0,0.0,92,0.00,,---,0.00,VWS V14.00,2013-12-09 01:22:00,
2013-12-08 19:25:00,18.9,17.0,29.99,NE,51,0.0,0.0,92,0.00,,---,0.00,VWS V14.00,2013-12-09 01:25:00,
2013-12-08 19:27:00,18.8,16.9,29.98,NE,51,0.0,1.0,92,0.00,,---,0.00,VWS V14.00,2013-12-09 01:27:00,
2013-12-08 19:30:00,18.8,16.9,29.98,NE,51,0.0,2.0,92,0.00,,---,0.00,VWS V14.00,2013-12-09 01:30:00,
2013-12-08 19:32:00,18.8,16.9,29.98,NE,51,0.0,1.0,92,0.00,,---,0.00,VWS V14.00,2013-12-09 01:32:00,
2013-12-08 19:35:00,18.8,16.9,29.98,NE,51,0.0,1.0,92,0.00,,---,0.00,VWS V14.00,2013-12-09 01:35:00,
2013-12-08 19:37:00,18.7,16.8,29.98,NE,51,0.0,0.0,92,0.00,,---,0.00,VWS V14.00,2013-12-09 01:37:00,
2013-12-08 19:40:00,18.7,16.8,29.98,NE,51,0.0,0.0,92,0.00,,---,0.00,VWS V14.00,2013-12-09 01:40:00,
2013-12-08 19:42:00,18.7,16.8,29.98,NE,51,0.0,0.0,92,0.00,,---,0.00,VWS V14.00,2013-12-09 01:42:00,
2013-12-08 19:45:00,18.7,16.8,29.98,NE,51,0.0,0.0,92,0.00,,---,0.00,VWS V14.00,2013-12-09 01:45:00,
2013-12-08 19:47:00,18.7,16.8,29.97,NE,51,0.0,0.0,92,0.00,,---,0.00,VWS V14.00,2013-12-09 01:47:00,
2013-12-08 19:50:00,18.7,16.8,29.98,NE,51,0.0,0.0,92,0.00,,---,0.00,VWS V14.00,2013-12-09 01:50:00,
2013-12-08 19:52:00,18.7,16.8,29.97,North,9,0.0,3.0,92,0.00,,---,0.00,VWS V14.00,2013-12-09 01:52:00,
2013-12-08 19:55:00,18.7,16.8,29.97,North,9,0.0,3.0,92,0.00,,---,0.00,VWS V14.00,2013-12-09 01:55:00,
2013-12-08 19:57:00,18.6,16.7,29.97,ENE,75,0.0,3.0,92,0.00,,---,0.00,VWS V14.00,2013-12-09 01:57:00,
2013-12-08 20:00:00,18.7,16.8,29.96,ENE,75,0.0,3.0,92,0.00,,---,0.00,VWS V14.00,2013-12-09 02:00:00,
2013-12-08 20:02:00,18.7,16.8,29.96,ENE,69,0.0,1.0,92,0.00,,---,0.00,VWS V14.00,2013-12-09 02:02:00,
2013-12-08 20:05:00,18.6,16.7,29.96,NE,49,1.0,3.0,92,0.00,,---,0.00,VWS V14.00,2013-12-09 02:05:00,
2013-12-08 20:07:00,18.7,16.8,29.96,NE,49,0.0,2.0,92,0.00,,---,0.00,VWS V14.00,2013-12-09 02:07:00,
2013-12-08 20:10:00,18.7,16.8,29.96,NE,48,0.0,2.0,92,0.00,,---,0.00,VWS V14.00,2013-12-09 02:10:00,
2013-12-08 20:12:00,18.7,16.8,29.96,NE,48,0.0,0.0,92,0.00,,---,0.00,VWS V14.00,2013-12-09 02:12:00,
2013-12-08 20:15:00,18.7,16.8,29.95,NE,49,0.0,1.0,92,0.00,,---,0.00,VWS V14.00,2013-12-09 02:15:00,
2013-12-08 20:17:00,18.7,16.8,29.95,NE,49,0.0,1.0,92,0.00,,---,0.00,VWS V14.00,2013-12-09 02:17:00,
2013-12-08 20:20:00,18.7,16.8,29.95,NE,49,0.0,1.0,92,0.00,,---,0.00,VWS V14.00,2013-12-09 02:20:00,
2013-12-08 20:22:00,18.7,16.8,29.95,NE,46,0.0,0.0,92,0.00,,---,0.00,VWS V14.00,2013-12-09 02:22:00,
2013-12-08 20:25:00,18.7,16.8,29.95,NE,46,0.0,0.0,92,0.00,,---,0.00,VWS V14.00,2013-12-09 02:25:00,
2013-12-08 20:27:00,18.7,16.8,29.95,NE,46,0.0,0.0,92,0.00,,---,0.00,VWS V14.00,2013-12-09 02:27:00,
2013-12-08 20:30:00,18.8,16.9,29.95,NE,46,0.0,0.0,92,0.00,,---,0.00,VWS V14.00,2013-12-09 02:30:00,
2013-12-08 20:32:00,18.8,16.9,29.95,NE,42,2.0,2.0,92,0.00,,---,0.00,VWS V14.00,2013-12-09 02:32:00,
2013-12-08 20:35:00,18.8,16.9,29.95,NE,40,0.0,3.0,92,0.00,,---,0.00,VWS V14.00,2013-12-09 02:35:00,
2013-12-08 20:37:00,18.8,16.9,29.95,NE,40,0.0,0.0,92,0.00,,---,0.00,VWS V14.00,2013-12-09 02:37:00,
2013-12-08 20:40:00,18.8,16.9,29.95,NE,40,0.0,0.0,92,0.00,,---,0.00,VWS V14.00,2013-12-09 02:40:00,
2013-12-08 20:42:00,18.8,16.9,29.95,NE,40,0.0,0.0,92,0.00,,---,0.00,VWS V14.00,2013-12-09 02:42:00,
2013-12-08 20:45:00,18.8,16.9,29.95,NE,41,0.0,0.0,92,0.00,,---,0.00,VWS V14.00,2013-12-09 02:45:00,
2013-12-08 20:47:00,18.8,16.9,29.95,North,360,1.0,3.0,92,0.00,,---,0.00,VWS V14.00,2013-12-09 02:47:00,
2013-12-08 20:50:00,18.8,16.9,29.94,North,360,0.0,3.0,92,0.00,,---,0.00,VWS V14.00,2013-12-09 02:50:00,
2013-12-08 20:52:00,18.8,16.9,29.94,North,360,0.0,0.0,92,0.00,,---,0.00,VWS V14.00,2013-12-09 02:52:00,
2013-12-08 20:55:00,18.7,16.8,29.94,North,5,0.0,0.0,92,0.00,,---,0.00,VWS V14.00,2013-12-09 02:55:00,
2013-12-08 20:57:00,18.8,16.9,29.94,North,5,0.0,0.0,92,0.00,,---,0.00,VWS V14.00,2013-12-09 02:57:00,
2013-12-08 21:00:00,18.7,16.8,29.94,North,5,0.0,0.0,92,0.00,,---,0.00,VWS V14.00,2013-12-09 03:00:00,
2013-12-08 21:02:00,18.7,16.8,29.93,North,355,0.0,1.0,92,0.00,,---,0.00,VWS V14.00,2013-12-09 03:02:00,
2013-12-08 21:05:00,18.7,16.8,29.93,North,355,0.0,1.0,92,0.00,,---,0.00,VWS V14.00,2013-12-09 03:05:00,
2013-12-08 21:07:00,18.7,16.8,29.93,North,355,0.0,0.0,92,0.00,,---,0.00,VWS V14.00,2013-12-09 03:07:00,
2013-12-08 21:10:00,18.7,16.8,29.93,North,355,0.0,0.0,92,0.00,,---,0.00,VWS V14.00,2013-12-09 03:10:00,
2013-12-08 21:12:00,18.6,16.7,29.93,North,355,0.0,0.0,92,0.00,,---,0.00,VWS V14.00,2013-12-09 03:12:00,
2013-12-08 21:15:00,18.6,16.7,29.93,North,355,0.0,0.0,92,0.00,,---,0.00,VWS V14.00,2013-12-09 03:15:00,
2013-12-08 21:17:00,18.6,16.7,29.93,North,355,0.0,0.0,92,0.00,,---,0.00,VWS V14.00,2013-12-09 03:17:00,
2013-12-08 21:20:00,18.6,16.7,29.93,North,355,0.0,0.0,92,0.00,,---,0.00,VWS V14.00,2013-12-09 03:20:00,
2013-12-08 21:22:00,18.5,16.6,29.94,North,355,0.0,0.0,92,0.00,,---,0.00,VWS V14.00,2013-12-09 03:22:00,
2013-12-08 21:25:00,18.6,16.7,29.93,North,355,0.0,0.0,92,0.00,,---,0.00,VWS V14.00,2013-12-09 03:25:00,
2013-12-08 21:27:00,18.5,16.6,29.93,North,355,0.0,0.0,92,0.00,,---,0.00,VWS V14.00,2013-12-09 03:27:00,
2013-12-08 21:30:00,18.5,16.6,29.93,North,355,0.0,0.0,92,0.00,,---,0.00,VWS V14.00,2013-12-09 03:30:00,
2013-12-08 21:32:00,18.5,16.6,29.93,North,355,0.0,0.0,92,0.00,,---,0.00,VWS V14.00,2013-12-09 03:32:00,
2013-12-08 21:35:00,18.5,16.6,29.93,North,355,0.0,0.0,92,0.00,,---,0.00,VWS V14.00,2013-12-09 03:35:00,
2013-12-08 21:37:00,18.5,16.6,29.93,North,355,0.0,0.0,92,0.00,,---,0.00,VWS V14.00,2013-12-09 03:37:00,
2013-12-08 21:40:00,18.5,16.6,29.93,North,355,0.0,1.0,92,0.00,,---,0.00,VWS V14.00,2013-12-09 03:40:00,
2013-12-08 21:42:00,18.5,16.6,29.93,North,355,0.0,2.0,92,0.00,,---,0.00,VWS V14.00,2013-12-09 03:42:00,
2013-12-08 21:45:00,18.5,16.6,29.93,North,355,0.0,2.0,92,0.00,,---,0.00,VWS V14.00,2013-12-09 03:45:00,
2013-12-08 21:47:00,18.5,16.6,29.93,North,355,0.0,0.0,92,0.00,,---,0.00,VWS V14.00,2013-12-09 03:47:00,
2013-12-08 21:50:00,18.5,16.6,29.92,North,355,0.0,0.0,92,0.00,,---,0.00,VWS V14.00,2013-12-09 03:50:00,
2013-12-08 21:52:00,18.5,16.6,29.92,North,355,0.0,0.0,92,0.00,,---,0.00,VWS V14.00,2013-12-09 03:52:00,
2013-12-08 21:55:00,18.5,16.6,29.92,North,355,0.0,2.0,92,0.00,,---,0.00,VWS V14.00,2013-12-09 03:55:00,
2013-12-08 21:57:00,18.5,16.6,29.92,North,355,0.0,0.0,92,0.00,,---,0.00,VWS V14.00,2013-12-09 03:57:00,
2013-12-08 22:00:00,18.5,16.6,29.92,North,355,0.0,0.0,92,0.00,,---,0.00,VWS V14.00,2013-12-09 04:00:00,
2013-12-08 22:02:00,18.5,16.6,29.91,North,355,0.0,1.0,92,0.00,,---,0.00,VWS V14.00,2013-12-09 04:02:00,
2013-12-08 22:05:00,18.5,16.6,29.91,North,355,0.0,1.0,92,0.00,,---,0.00,VWS V14.00,2013-12-09 04:05:00,
2013-12-08 22:07:00,18.5,16.6,29.91,North,355,0.0,0.0,92,0.00,,---,0.00,VWS V14.00,2013-12-09 04:07:00,
2013-12-08 22:10:00,18.5,16.6,29.91,North,355,0.0,0.0,92,0.00,,---,0.00,VWS V14.00,2013-12-09 04:10:00,
2013-12-08 22:12:00,18.4,16.5,29.91,North,355,0.0,0.0,92,0.00,,---,0.00,VWS V14.00,2013-12-09 04:12:00,
2013-12-08 22:15:00,18.4,16.5,29.92,North,355,0.0,0.0,92,0.00,,---,0.00,VWS V14.00,2013-12-09 04:15:00,
2013-12-08 22:17:00,18.4,16.5,29.92,North,355,1.0,1.0,92,0.00,,---,0.00,VWS V14.00,2013-12-09 04:17:00,
2013-12-08 22:20:00,18.4,16.5,29.92,North,355,0.0,1.0,92,0.00,,---,0.00,VWS V14.00,2013-12-09 04:20:00,
2013-12-08 22:22:00,18.3,16.4,29.92,North,355,0.0,0.0,92,0.00,,---,0.00,VWS V14.00,2013-12-09 04:22:00,
2013-12-08 22:25:00,18.2,16.3,29.92,North,355,0.0,0.0,92,0.00,,---,0.00,VWS V14.00,2013-12-09 04:25:00,
2013-12-08 22:27:00,18.2,16.3,29.92,North,355,0.0,0.0,92,0.00,,---,0.00,VWS V14.00,2013-12-09 04:27:00,
2013-12-08 22:30:00,18.2,16.3,29.91,North,355,2.0,2.0,92,0.00,,---,0.00,VWS V14.00,2013-12-09 04:30:00,
2013-12-08 22:32:00,18.1,16.2,29.91,North,355,0.0,2.0,92,0.00,,---,0.00,VWS V14.00,2013-12-09 04:32:00,
2013-12-08 22:35:00,18.1,16.2,29.91,NW,326,0.0,2.0,92,0.00,,---,0.00,VWS V14.00,2013-12-09 04:35:00,
2013-12-08 22:37:00,18.0,16.1,29.91,NW,326,0.0,0.0,92,0.00,,---,0.00,VWS V14.00,2013-12-09 04:37:00,
2013-12-08 22:40:00,18.0,16.1,29.91,NW,322,0.0,3.0,92,0.00,,---,0.00,VWS V14.00,2013-12-09 04:40:00,
2013-12-08 22:42:00,17.9,16.0,29.91,NW,322,0.0,2.0,92,0.00,,---,0.00,VWS V14.00,2013-12-09 04:42:00,
2013-12-08 22:45:00,17.9,16.0,29.91,NW,323,0.0,2.0,92,0.00,,---,0.00,VWS V14.00,2013-12-09 04:45:00,
2013-12-08 22:47:00,17.8,15.9,29.91,NW,322,0.0,0.0,92,0.00,,---,0.00,VWS V14.00,2013-12-09 04:47:00,
2013-12-08 22:50:00,17.8,15.9,29.91,NW,323,0.0,0.0,92,0.00,,---,0.00,VWS V14.00,2013-12-09 04:50:00,
2013-12-08 22:52:00,17.7,15.8,29.92,NW,322,1.0,3.0,92,0.00,,---,0.00,VWS V14.00,2013-12-09 04:52:00,
2013-12-08 22:55:00,17.7,15.8,29.91,NW,323,0.0,3.0,92,0.00,,---,0.00,VWS V14.00,2013-12-09 04:55:00,
2013-12-08 22:57:00,17.6,15.7,29.91,NW,306,0.0,3.0,92,0.00,,---,0.00,VWS V14.00,2013-12-09 04:57:00,
2013-12-08 23:00:00,17.5,15.6,29.92,NNW,330,0.0,3.0,92,0.00,,---,0.00,VWS V14.00,2013-12-09 05:00:00,
2013-12-08 23:01:00,17.5,15.6,29.91,NNW,330,0.0,0.0,92,0.00,,---,0.00,VWS V14.00,2013-12-09 05:01:00,
2013-12-08 23:03:00,17.4,15.5,29.91,NNW,330,0.0,1.0,92,0.00,,---,0.00,VWS V14.00,2013-12-09 05:03:00,
2013-12-08 23:05:00,17.4,15.5,29.91,NNW,330,0.0,1.0,92,0.00,,---,0.00,VWS V14.00,2013-12-09 05:05:00,
2013-12-08 23:08:00,17.3,15.4,29.91,NNW,331,0.0,4.0,92,0.00,,---,0.00,VWS V14.00,2013-12-09 05:08:00,
2013-12-08 23:10:00,17.3,15.4,29.91,NW,311,0.0,4.0,92,0.00,,---,0.00,VWS V14.00,2013-12-09 05:10:00,
2013-12-08 23:13:00,17.2,15.0,29.91,NW,310,0.0,4.0,91,0.00,,---,0.00,VWS V14.00,2013-12-09 05:13:00,
2013-12-08 23:15:00,17.2,15.0,29.91,NW,310,0.0,4.0,91,0.00,,---,0.00,VWS V14.00,2013-12-09 05:15:00,
2013-12-08 23:18:00,17.1,14.9,29.91,NW,311,0.0,3.0,91,0.00,,---,0.00,VWS V14.00,2013-12-09 05:18:00,
2013-12-08 23:20:00,17.1,14.9,29.91,NW,310,0.0,3.0,91,0.00,,---,0.00,VWS V14.00,2013-12-09 05:20:00,
2013-12-08 23:23:00,17.1,15.2,29.91,NW,311,0.0,0.0,92,0.00,,---,0.00,VWS V14.00,2013-12-09 05:23:00,
2013-12-08 23:25:00,17.1,15.2,29.91,NW,311,0.0,0.0,92,0.00,,---,0.00,VWS V14.00,2013-12-09 05:25:00,
2013-12-08 23:28:00,17.1,15.2,29.91,NW,310,0.0,3.0,92,0.00,,---,0.00,VWS V14.00,2013-12-09 05:28:00,
2013-12-08 23:30:00,17.1,15.2,29.91,NW,311,0.0,3.0,92,0.00,,---,0.00,VWS V14.00,2013-12-09 05:30:00,
2013-12-08 23:33:00,17.1,15.2,29.91,NW,311,0.0,1.0,92,0.00,,---,0.00,VWS V14.00,2013-12-09 05:33:00,
2013-12-08 23:35:00,17.1,15.2,29.91,NW,311,0.0,1.0,92,0.00,,---,0.00,VWS V14.00,2013-12-09 05:35:00,
2013-12-08 23:38:00,17.1,15.2,29.91,NW,311,0.0,0.0,92,0.00,,---,0.00,VWS V14.00,2013-12-09 05:38:00,
2013-12-08 23:40:00,17.1,15.2,29.91,NW,310,0.0,2.0,92,0.00,,---,0.00,VWS V14.00,2013-12-09 05:40:00,
2013-12-08 23:43:00,17.1,15.2,29.90,NW,311,0.0,2.0,92,0.00,,---,0.00,VWS V14.00,2013-12-09 05:43:00,
2013-12-08 23:45:00,17.1,15.2,29.90,NW,311,0.0,2.0,92,0.00,,---,0.00,VWS V14.00,2013-12-09 05:45:00,
2013-12-08 23:48:00,17.0,15.1,29.90,NW,310,0.0,0.0,92,0.00,,---,0.00,VWS V14.00,2013-12-09 05:48:00,
2013-12-08 23:50:00,17.0,15.1,29.90,NW,310,0.0,0.0,92,0.00,,---,0.00,VWS V14.00,2013-12-09 05:50:00,
2013-12-08 23:53:00,17.0,15.1,29.90,NW,310,0.0,0.0,92,0.00,,---,0.00,VWS V14.00,2013-12-09 05:53:00,
2013-12-08 23:55:00,17.0,15.1,29.90,NW,310,0.0,0.0,92,0.00,,---,0.00,VWS V14.00,2013-12-09 05:55:00,
2013-12-08 23:58:00,17.0,15.1,29.89,NW,311,0.0,0.0,92,0.00,,---,0.00,VWS V14.00,2013-12-09 05:58:00,